Regional Weather Roundup
Issued by NWS Charleston, SC

Current Version | Previous Version | Graphics & Text | Print | Product List | Glossary On
Versions: 1 2 3 4 5 6 7 8 9 10 11 12 13 14 15 16 17 18 19 20 21 22 23 24 25 26 27 28 29 30 31 32 33 34 35 36 37 38 39 40 41 42 43 44 45 46 47 48 49 50
000 ASUS42 KCHS 231726 RWRCHS REGIONAL WEATHER ROUNDUP NATIONAL WEATHER SERVICE CHARLESTON SC 1200 PM EST THU FEB 23 2017 NOTE: "FAIR" INDICATES FEW OR NO CLOUDS BELOW 12,000 FEET WITH NO SIGNIFICANT WEATHER AND/OR OBSTRUCTIONS TO VISIBILITY. NOT ALL STATIONS ARE QUALITY CONTROLLED. USE DATA WITH CAUTION... ESPECIALLY DEWPOINT OBSERVATIONS. SCZ027-030-031-034>040-042>050-231800- ...SOUTHEAST SOUTH CAROLINA... CITY SKY/WX TMP DP RH WIND PRES REMARKS N CHARLESTON PTSUNNY 76 58 53 E15G21 29.86F WATERFRONT PRK N/A 69 62 78 E16 29.85F MOUNT PLEASANT FAIR 75 63 64 E7 29.87F JOHNS ISLAND FAIR 75 63 64 NE17G25 29.86F PINOPOLIS N/A 64 61 88 NE7 29.81F MONCKS CORNER FAIR 73 55 53 E9G16 29.87F SUMMERVILLE FAIR 73 57 56 E8 29.87F BEAUFORT MCAS MOSUNNY 75 62 64 E10 29.85F BEAUFORT ARPT FAIR 73 61 64 E15G25 29.84F HILTON HEAD IS MOSUNNY 73 63 68 NE12G21 29.85F WALTERBORO MOSUNNY 73 57 56 E13 29.87F ALLENDALE PTSUNNY 73 57 56 VRB5G14 29.85F ...SOUTHERN MIDLANDS AND PEE DEE... CITY SKY/WX TMP DP RH WIND PRES REMARKS GEORGETOWN CLOUDY 70 59 68 NE8 29.90F KINGSTREE PTSUNNY 72 55 56 E7 29.89F ORANGEBURG MOSUNNY 71 55 56 NE8 29.89F BARNWELL FAIR 77 57 50 E14 29.87F AIKEN FAIR 70 54 56 NE9G16 29.92F MANNING PTSUNNY 72 34 25 MISG 29.89F COLUMBIA MOSUNNY 72 54 53 E8 29.90F SUMTER MOSUNNY 75 55 50 E9 29.88F FLORENCE PTSUNNY 73 56 54 E8G17 29.91F MYRTLE BEACH PTSUNNY N/A N/A N/A E14 29.92F N MYRTLE BEACH MOSUNNY 73 57 57 E12G22 29.91F $$ GAZ063-065-086>088-099>101-113>116-118-119-134>141-150-231800- ...SOUTHEAST GEORGIA... CITY SKY/WX TMP DP RH WIND PRES REMARKS SAVANNAH ARPT PTSUNNY 74 60 61 NE14 29.84F HUNTER AAF CLOUDY 74 66 75 E15G21 29.81F FORT STEWART PTSUNNY 73 61 64 NE12 29.81F STATESBORO MOSUNNY 76 62 62 E8 29.85F SYLVANIA MOSUNNY N/A N/A N/A E10 29.86F CLAXTON CLOUDY N/A N/A N/A NE9G16 29.84F ...CSRA...CENTRAL AND FAR SOUTHEAST GEORGIA... CITY SKY/WX TMP DP RH WIND PRES REMARKS THOMSON MOSUNNY 74 58 57 E5 29.93F AUGUSTA-BUSH MOSUNNY 76 55 48 E10 29.88F AUGUSTA-DANIEL MOSUNNY 75 52 44 E10 29.88F HAZE SWAINSBORO CLOUDY 73 59 60 E7 29.86F VIDALIA PTSUNNY 75 63 64 E14 29.84F EASTMAN PTSUNNY 78 45 31 E6 29.87F HAZLEHURST PTSUNNY 74 64 71 E9 29.82F ALMA MOSUNNY 75 62 64 E9 29.82F WAYCROSS PTSUNNY 78 66 68 E14G21 29.80F JESUP PTSUNNY 73 61 64 NE10 29.82F BAXLEY FAIR 75 64 69 E13 29.82F BRUNSWICK PTSUNNY 73 66 78 NE20 29.81F SAINT SIMONS MOSUNNY 71 62 73 NE22 29.80F $$ SCZ027-028-034-036>038-045-046-048>050-GAZ119-141-231800- ...LAKE AND SUPPLEMENTAL COASTAL OBSERVATIONS... STATION/POSITION TIME TEMP WIND PRES WAVE SWELL AIR SEA DIR/SP/G HT/PER HT/PER/DIR (UTC) (F) (DEG/KT/KT) (MB) (FT/S) (FT/S/D) WINYAH BAY 1645 65 60/ 14 1012.0F LAKE MURRAY 1650 70 CALM / 3 1012.2F ACE BASIN NERRS 1630 74 50/ 7 1011.0S FORT PULASKI 1700 68 61 70/ 16/ 21 1010.7 SAPELO ISLAND 1700 72 50/ 14 1009.0 $$ ANZ835-935-AMZ111-154-330-350-352-354-370-450-454-472-231800- ...C-MAN AND BUOY OBSERVATIONS... STATION/POSITION TIME TEMP WIND PRES WAVE SWELL AIR SEA DIR/SP/G HT/PER HT/PER/DIR (UTC) (F) (DEG/KT/KT) (MB) (FT/S) (FT/S/D) BUOY 41004 1650 71 69 70/ 16/ 19 1010.4F 7/ 8 5/140/ 8 BUOY 41008 1650 63 62 30/ 17/ 19 1008.9S 7/ 9 5/130/ 9 FOLLY BEACH CMAN 1700 64 50/ 16/ 18 1011.8F CAPERS NEARSHORE 1708 63 60 50/ 16/ 19 1011.3F FRIPP NEARSHORE 1708 64 61 60/ 16/ 21 1010.6F STATION/POSITION TIME TEMP WIND PRES WAVE SWELL AIR SEA DIR/SP/G HT/PER HT/PER/DIR (UTC) (F) (DEG/KT/KT) (MB) (FT/S) (FT/S/D) 5E ST. MARYS GA 1700 63 N/A 7/ 9 2/110/11 FRYING PAN BUOY 1710 68 70 120/ 17/ 21 1012.5 BUOY 41025 1650 71 74 140/ 16/ 17 1014.6F 4/ 5 2/ 90/10 CAPE LOOKOUT NC 1700 68 80/ 3/ 4 1013.8F BUOY 41002 1650 69 70 100/ 19/ 23 1012.0F 8/ 7 3/ 70/10 BUOY 41010 NOT AVBL ST AUGUSTINE FL 1700 67 67 40/ 21/ 25 1007.3R $$

USA.gov is the U.S. government's official web portal to all federal, state and local government web resources and services.